User: anonymous   Login
Location: Newark
(46.1292°N, 1.0086°W)
Time: 15:53:27
(UTC+00:00)
Language:

S-56A Canister/Altair - Orbit

View from above orbital plane
View from above orbital plane
View from above satellite
View from above satellite

Ground track
Ground track

The orbit data is extracted from the following two-line orbital elements,

1    82U 61004B   19317.36222616 -.00000011  00000-0  37910-4 0  9997
2    82  38.8556 282.2198 1173616 115.8262 256.8103 12.26055596781168
Epoch (UTC): 13 November 2019 08:41:36
Eccentricity: 0.1173616
inclination: 38.8556°
perigee height: 634 km
apogee height: 2498 km
right ascension of ascending node: 282.2198°
argument of perigee: 115.8262°
revolutions per day: 12.26055596
mean anomaly at epoch: 256.8103°
orbit number at epoch: 78116

The dashed part of the orbit path shows where the satellite is in the earth's shadow,  

DLR